CW2234 Weather Reports


Display with metric or nautical units.
time (UTC)temp
F
wind
direction
speed
MPH
gust
MPH
rain 1hr
in
rain 24hr
in
rain mn
in
humidity
%
barometer
mb
20260901063100 67 0 0.0 2.0 0.00 0.00 0.00 87 1014.2
20260901061600 68 0 0.0 2.0 0.00 0.00 0.00 87 1013.9
20260901060056 68 0 0.0 1.0 0.00 0.00 0.00 87 1013.9
20260901054603 68 166 0.0 5.0 0.00 0.00 0.00 87 1013.8
20260901053122 68 115 0.0 4.0 0.00 0.00 0.00 87 1013.7
20260901051557 68 0 0.0 4.0 0.00 0.00 0.00 86 1013.7
20260901050104 69 141 1.0 4.0 0.00 0.00 0.00 86 1013.6
20260901044558 69 0 0.0 2.0 0.00 0.00 0.00 86 1013.7
20260901043125 69 0 0.0 2.0 0.00 0.00 0.00 86 1013.6
20260901041610 69 0 0.0 2.0 0.00 0.00 0.00 86 1013.4
20260901034607 70 169 2.0 5.0 0.00 0.00 0.00 86 1012.9
20260901033108 70 0 1.0 4.0 0.00 0.00 0.00 86 1012.6
20260901031555 70 0 1.0 4.0 0.00 0.00 0.00 84 1012.5
20260901030103 70 0 2.0 9.0 0.00 0.00 0.00 84 1012.3
20260901024607 70 129 1.0 7.0 0.00 0.00 0.00 83 1012.2
20260901023102 70 147 2.0 8.0 0.00 0.00 0.00 83 1012.2
20260901021609 70 0 1.0 8.0 0.00 0.00 0.00 83 1012.2
20260901020109 71 0 2.0 9.0 0.00 0.00 0.00 82 1012.4
20260901014604 72 106 2.0 9.0 0.00 0.00 0.00 81 1012.3
20260901013057 73 123 1.0 7.0 0.00 0.00 0.00 79 1012.3
20260901011603 74 166 1.0 8.0 0.00 0.00 0.00 78 1012.4
20260901010101 74 171 2.0 11.0 0.00 0.00 0.00 78 1012.4
20260901004605 75 125 1.0 10.0 0.00 0.00 0.00 77 1012.5
20260901003103 75 107 1.0 7.0 0.00 0.00 0.00 77 1012.5
20260901001600 76 101 2.0 9.0 0.00 0.00 0.00 76 1012.5
20260901000108 76 151 3.0 12.0 0.00 0.00 0.00 75 1012.5
20260831234605 78 85 2.0 7.0 0.00 0.00 0.00 74 1012.4
20260831233101 78 141 1.0 7.0 0.00 0.00 0.00 73 1012.5
20260831231609 78 205 1.0 8.0 0.00 0.00 0.00 71 1012.4
20260831230100 79 63 2.0 8.0 0.00 0.00 0.00 71 1012.4
20260831224601 79 119 3.0 8.0 0.00 0.00 0.00 70 1012.5
20260831223105 79 143 0.0 9.0 0.00 0.00 0.00 72 1012.4
20260831221608 78 128 3.0 11.0 0.00 0.00 0.00 72 1012.8
20260831220128 78 140 3.0 10.0 0.00 0.00 0.00 71 1012.9
20260831214615 79 0 2.0 9.0 0.00 0.00 0.00 71 1012.9
20260831213106 78 176 1.0 7.0 0.00 0.00 0.00 71 1013.2
20260831211604 78 101 3.0 10.0 0.00 0.00 0.00 71 1013.3
20260831210100 79 110 2.0 7.0 0.00 0.00 0.00 71 1013.3
20260831204604 79 0 2.0 8.0 0.00 0.00 0.00 73 1013.2
20260831203134 79 134 3.0 8.0 0.00 0.00 0.00 72 1013.4
20260831201606 79 101 1.0 8.0 0.00 0.00 0.00 73 1013.4
20260831200106 78 133 2.0 7.0 0.00 0.00 0.00 73 1013.4
20260831194610 78 124 2.0 8.0 0.00 0.00 0.00 72 1013.5
20260831193102 78 118 2.0 9.0 0.00 0.00 0.00 73 1013.7
20260831191605 79 108 1.0 7.0 0.00 0.00 0.00 72 1013.7
20260831190138 79 0 2.0 7.0 0.00 0.00 0.00 72 1013.7
20260831184603 79 0 2.0 8.0 0.00 0.00 0.00 72 1013.8
20260831183059 79 157 1.0 8.0 0.00 0.00 0.00 73 1013.7
20260831181558 79 123 1.0 7.0 0.00 0.00 0.00 73 1013.7
20260831174602 78 148 2.0 5.0 0.00 0.00 0.00 74 1013.8
20260831173058 77 126 1.0 5.0 0.00 0.00 0.00 76 1013.9
20260831171552 77 0 1.0 4.0 0.00 0.00 0.00 76 1013.9
20260831170110 77 109 1.0 5.0 0.00 0.00 0.00 76 1013.7
20260831164604 76 342 1.0 6.0 0.00 0.00 0.00 76 1013.6
20260831163105 75 342 3.0 6.0 0.00 0.00 0.00 78 1013.6
20260831161607 74 299 2.0 5.0 0.00 0.00 0.00 81 1013.6
20260831160135 74 322 2.0 8.0 0.00 0.00 0.00 82 1013.5
20260831154631 73 190 0.0 3.0 0.00 0.00 0.00 84 1013.5
20260831153133 72 185 0.0 2.0 0.00 0.00 0.00 84 1013.4
20260831151602 72 185 0.0 4.0 0.00 0.00 0.00 84 1013.3
20260831150055 72 152 0.0 2.0 0.00 0.00 0.00 85 1013.3
20260831144607 71 125 0.0 2.0 0.00 0.00 0.00 86 1013.1
20260831143102 70 125 1.0 2.0 0.00 0.00 0.00 87 1013.0
20260831141601 69 0 0.0 1.0 0.00 0.00 0.00 89 1012.8
20260831140056 69 0 0.0 2.0 0.00 0.00 0.00 90 1012.6
20260831134609 68 0 0.0 1.0 0.00 0.00 0.00 89 1012.5
20260831133103 68 0 0.0 3.0 0.00 0.00 0.00 89 1012.3
20260831131604 68 0 0.0 0.0 0.00 0.00 0.00 88 1012.3
20260831130137 69 0 0.0 1.0 0.00 0.00 0.00 88 1012.2
20260831124604 69 0 0.0 2.0 0.00 0.00 0.00 88 1012.2
20260831123106 69 0 0.0 2.0 0.00 0.00 0.00 88 1012.1
20260831121608 69 0 0.0 2.0 0.00 0.00 0.00 88 1012.1
20260831120146 69 0 0.0 2.0 0.00 0.00 0.00 88 1012.2
20260831114603 69 0 0.0 2.0 0.00 0.00 0.00 88 1012.0
20260831113102 69 136 0.0 2.0 0.00 0.00 0.00 88 1012.1
20260831111606 69 0 0.0 2.0 0.00 0.00 0.00 88 1012.1
20260831110107 69 137 0.0 2.0 0.00 0.00 0.00 88 1012.0
20260831104600 69 0 0.0 2.0 0.00 0.00 0.00 89 1012.1
20260831103104 69 0 0.0 3.0 0.00 0.00 0.00 88 1012.3
20260831101621 69 0 0.0 2.0 0.00 0.00 0.00 88 1012.2
20260831100107 69 0 0.0 2.0 0.00 0.00 0.00 87 1012.1
20260831094609 70 0 0.0 2.0 0.00 0.00 0.00 87 1012.1
20260831093101 70 0 0.0 1.0 0.00 0.00 0.00 86 1012.1
20260831091606 70 0 0.0 1.0 0.00 0.00 0.00 86 1012.1
20260831090119 70 0 0.0 2.0 0.00 0.00 0.00 86 1012.1
20260831084602 70 132 0.0 1.0 0.00 0.00 0.00 85 1012.0
20260831083058 70 0 0.0 0.0 0.00 0.00 0.00 83 1012.1
20260831081605 70 0 0.0 0.0 0.00 0.00 0.00 81 1012.1
20260831080100 70 0 0.0 0.0 0.00 0.00 0.00 79 1012.3
20260831074557 70 0 0.0 1.0 0.00 0.00 0.00 78 1012.2
20260831073109 70 0 0.0 1.0 0.00 0.00 0.00 79 1012.1
20260831071608 71 131 0.0 2.0 0.00 0.00 0.00 86 1012.0
20260831070134 71 0 0.0 2.0 0.00 0.00 0.00 87 1011.9
20260831064554 71 0 0.0 1.0 0.00 0.00 0.00 87 1011.9